Location: Paddlesworth
(51.1000°N, 1.1333°E)
Time: 18:25:30
(UTC+00:00)

Cosmos 2242 Rocket - Pass Details

Date: 11 May 2021
Orbit: 619 x 651 km, 82.5° (Epoch: 20 June)

Event Time Altitude Azimuth Distance (km) Brightness Sun altitude
Exits shadow 23:09:01 41° 126° (SE) 915 4.0 -20.1°
Maximum altitude 23:09:50 46° 94° (E) 846 4.1 -20.2°
Drops below altitude 10° 23:14:08 10° 21° (NNE) 2,027 7.0 -20.3°
Sets 23:16:27 0° 15° (NNE) 2,945 8.2 -20.3°
